Location: Newark
(41.7772°N, 74.7403°W)
Time: 18:00:13
(UTC+00:00)

S-56A Canister/Altair - All Passes

Search period start: 06 June 2020 00:00
Search period end: 16 June 2020 00:00
Orbit: 633 x 2499 km, 38.9° (Epoch: 05 June)

Date Brightness Start Highest point End Pass type
(mag) Time Alt. Az. Time Alt. Az. Time Alt. Az.
06 Jun - 06:00:54 10° SSE 06:02:35 12° SE 06:04:23 10° ESE visible
06 Jun - 08:00:34 10° SW 08:05:11 46° SSE 08:11:23 10° E visible
06 Jun - 10:03:10 10° W 10:08:51 71° S 10:17:22 10° E daylight
06 Jun - 12:06:18 10° W 12:13:08 52° SSW 12:23:26 10° SE daylight
06 Jun - 14:10:43 10° W 14:17:44 25° SSW 14:26:55 10° SSE daylight
07 Jun - 07:28:18 10° SW 07:32:39 40° SSE 07:38:13 10° E visible
07 Jun - 09:30:49 10° W 09:36:07 70° S 09:43:56 10° E daylight
07 Jun - 11:33:52 10° W 11:40:15 54° SSW 11:49:55 10° SE daylight
07 Jun - 13:37:58 10° W 13:44:44 27° SSW 13:53:48 10° SSE daylight
08 Jun - 06:56:04 10° SW 07:00:10 34° SSE 07:05:07 10° E visible
08 Jun - 08:58:27 10° WSW 09:03:28 68° S 09:10:36 10° E daylight
08 Jun - 11:01:27 10° W 11:07:26 55° SSW 11:16:27 10° ESE daylight
08 Jun - 13:05:17 10° W 13:11:46 28° SSW 13:20:38 10° SSE daylight
09 Jun - 06:23:49 10° SW 06:27:41 29° SSE 06:32:06 10° E visible
09 Jun - 08:26:06 10° WSW 08:30:51 65° S 08:37:22 10° E visible
09 Jun - 10:29:03 10° W 10:34:41 57° SSW 10:43:03 10° ESE daylight
09 Jun - 12:32:41 10° W 12:38:52 30° SSW 12:47:25 10° SSE daylight
10 Jun - 05:51:35 10° SSW 05:55:13 25° SSE 05:59:09 10° E visible
10 Jun - 07:53:43 10° WSW 07:58:17 62° S 08:04:14 10° E visible
10 Jun - 09:56:40 10° W 10:01:58 59° S 10:09:41 10° ESE daylight
10 Jun - 12:00:09 10° W 12:06:00 31° SSW 12:14:13 10° SSE daylight
10 Jun - 14:08:38 10° SW 14:10:16 10° SW 14:11:59 10° SSW daylight
11 Jun - 05:19:21 10° SSW 05:22:45 21° SSE 05:26:14 10° E visible
11 Jun - 07:21:20 10° WSW 07:25:44 57° S 07:31:12 10° E visible
11 Jun - 09:24:18 10° W 09:29:18 60° S 09:36:25 10° ESE daylight
11 Jun - 11:27:40 10° W 11:33:12 33° SSW 11:41:00 10° SE daylight
11 Jun - 13:34:42 10° SW 13:37:22 12° SW 13:40:19 10° SSW daylight
12 Jun - 04:47:09 10° SSW 04:50:16 18° SSE 04:53:20 10° ESE visible
12 Jun - 06:48:55 10° WSW 06:53:13 53° SSE 06:58:16 10° E visible
12 Jun - 08:51:55 10° W 08:56:41 61° S 09:03:13 10° ESE daylight
12 Jun - 10:55:11 10° W 11:00:27 34° SSW 11:07:49 10° SE daylight
12 Jun - 13:01:22 10° WSW 13:04:31 13° SW 13:08:05 10° SSW daylight
13 Jun - 04:14:58 10° S 04:17:46 16° SSE 04:20:27 10° ESE night (unlit)
13 Jun - 06:16:27 10° WSW 06:20:44 48° SSE 06:25:25 10° E visible
13 Jun - 08:19:31 10° W 08:24:06 62° S 08:30:07 10° ESE visible
13 Jun - 10:22:45 10° W 10:27:45 36° SSW 10:34:41 10° SE daylight
13 Jun - 12:28:18 10° WSW 12:31:41 14° SSW 12:35:38 10° S daylight
14 Jun - 03:42:50 10° S 03:45:14 14° SSE 03:47:30 10° ESE night (unlit)
14 Jun - 05:43:58 10° SW 05:48:14 43° SSE 05:52:39 10° E visible
14 Jun - 07:47:06 10° W 07:51:32 63° S 07:57:06 10° ESE visible
14 Jun - 09:50:20 10° W 09:55:05 38° SSW 10:01:35 10° SE daylight
14 Jun - 11:55:24 10° WSW 11:58:54 15° SSW 12:03:03 10° S daylight
15 Jun - 03:10:47 10° S 03:12:41 12° SSE 03:14:28 10° SE night (unlit)
15 Jun - 05:11:26 10° SW 05:15:45 39° SSE 05:19:58 10° E visible
15 Jun - 07:14:37 10° W 07:19:01 63° S 07:24:10 10° E visible
15 Jun - 09:17:54 10° W 09:22:28 40° SSW 09:28:32 10° SE daylight
15 Jun - 11:22:37 10° WSW 11:26:09 16° SSW 11:30:25 10° S daylight
